DW1980 Weather Reports


Display with metric or nautical units.
time (UTC)temp
F
wind
direction
speed
MPH
gust
MPH
rain 1hr
in
rain 24hr
in
rain mn
in
humidity
%
barometer
mb
20260506180851 61 163 1.0 3.0 0.02 0.04 0.04 95 1008.4
20260506180342 61 157 2.0 3.0 0.02 0.04 0.04 95 1008.6
20260506180121 61 215 1.0 3.0 0.03 0.04 0.04 95 1008.3
20260506180041 61 215 1.0 3.0 0.03 0.04 0.04 94 1007.9
20260506175849 61 308 1.0 3.0 0.03 0.04 0.04 94 1008.6
20260506174910 61 240 1.0 3.0 0.03 0.04 0.04 94 1008.6
20260506174618 61 254 1.0 3.0 0.02 0.03 0.03 94 1008.2
20260506174539 61 0 1.0 3.0 0.02 0.03 0.03 94 1007.9
20260506174340 61 166 1.0 3.0 0.03 0.03 0.03 94 1008.5
20260506173850 61 161 1.0 3.0 0.03 0.03 0.03 94 1008.5
20260506173341 61 152 2.0 5.0 0.02 0.02 0.02 93 1008.5
20260506173131 61 145 1.0 5.0 0.02 0.02 0.02 93 1008.1
20260506173113 61 145 1.0 5.0 0.02 0.02 0.02 93 1007.7
20260506172848 61 110 2.0 3.0 0.02 0.02 0.02 93 1008.4
20260506172339 62 195 1.0 5.0 0.02 0.02 0.02 93 1008.5
20260506171910 62 186 2.0 5.0 0.02 0.02 0.02 92 1008.4
20260506171617 61 183 2.0 5.0 0.02 0.02 0.02 93 1008.2
20260506171545 61 170 2.0 5.0 0.02 0.02 0.02 92 1007.9
20260506171339 62 161 2.0 4.0 0.02 0.02 0.02 92 1008.6
20260506170849 62 163 1.0 4.0 0.02 0.02 0.02 92 1008.7
20260506170402 62 156 1.0 4.0 0.02 0.02 0.02 91 1008.5
20260506170110 62 131 1.0 4.0 0.01 0.01 0.01 91 1008.3
20260506170100 62 131 1.0 4.0 0.01 0.01 0.01 91 1008.1
20260506165848 63 132 2.0 4.0 0.01 0.01 0.01 91 1008.8
20260506165400 63 65 1.0 3.0 0.01 0.01 0.01 90 1008.7
20260506164850 63 102 1.0 3.0 0.01 0.01 0.01 89 1008.9
20260506164618 63 157 0.0 3.0 0.01 0.01 0.01 88 1008.6
20260506164540 63 161 0.0 3.0 0.00 0.00 0.00 87 1008.3
20260506164341 64 186 1.0 3.0 0.00 0.00 0.00 87 1009.1
20260506163914 64 173 1.0 2.0 0.00 0.00 0.00 87 1009.2
20260506163345 65 206 0.0 3.0 0.00 0.00 0.00 85 1009.5
20260506163110 64 206 0.0 3.0 0.00 0.00 0.00 85 1009.1
20260506163050 64 0 0.0 3.0 0.00 0.00 0.00 84 1008.9
20260506162852 65 214 0.0 2.0 0.00 0.00 0.00 84 1009.6
20260506162342 65 186 0.0 5.0 0.00 0.00 0.00 83 1009.8
20260506161854 65 190 2.0 5.0 0.00 0.00 0.00 81 1009.7
20260506161603 65 184 1.0 4.0 0.00 0.00 0.00 81 1009.3
20260506161540 65 205 1.0 5.0 0.00 0.00 0.00 81 1009.0
20260506161346 66 168 1.0 4.0 0.00 0.00 0.00 81 1009.7
20260506160839 66 66 2.0 5.0 0.00 0.00 0.00 83 1009.4
20260506160349 66 162 1.0 2.0 0.00 0.00 0.00 82 1009.5
20260506160118 65 167 0.0 2.0 0.00 0.00 0.00 82 1009.1
20260506160042 65 167 0.0 4.0 0.00 0.00 0.00 82 1008.8
20260506155855 66 170 1.0 3.0 0.00 0.00 0.00 82 1009.5
20260506155345 66 193 2.0 5.0 0.00 0.00 0.00 81 1009.6
20260506154835 66 201 1.0 5.0 0.00 0.00 0.00 81 1009.5
20260506154621 66 130 1.0 5.0 0.00 0.00 0.00 81 1009.2
20260506154604 66 0 1.0 5.0 0.00 0.00 0.00 81 1008.9
20260506154346 66 161 1.0 3.0 0.00 0.00 0.00 81 1009.6
20260506153855 67 161 1.0 3.0 0.00 0.00 0.00 81 1009.7
20260506153346 67 93 1.0 3.0 0.00 0.00 0.00 80 1009.8
20260506153106 66 142 1.0 3.0 0.00 0.00 0.00 79 1009.4
20260506153040 66 142 1.0 3.0 0.00 0.00 0.00 79 1009.3
20260506152853 67 196 1.0 2.0 0.00 0.00 0.00 81 1009.9
20260506152403 67 203 1.0 6.0 0.00 0.00 0.00 80 1009.9
20260506151853 67 159 2.0 6.0 0.00 0.00 0.00 79 1009.9
20260506151616 67 200 2.0 6.0 0.00 0.00 0.00 80 1009.5
20260506151541 67 159 2.0 6.0 0.00 0.00 0.00 79 1009.4
20260506151342 67 121 2.0 6.0 0.00 0.00 0.00 79 1009.9
20260506150853 67 196 2.0 6.0 0.00 0.00 0.00 79 1009.8
20260506150343 67 188 2.0 5.0 0.00 0.00 0.00 79 1010.0
20260506150110 66 146 2.0 6.0 0.00 0.00 0.00 80 1009.6
20260506150039 66 182 2.0 6.0 0.00 0.00 0.00 78 1009.4
20260506145912 67 158 2.0 5.0 0.00 0.00 0.00 79 1010.0
20260506145341 67 153 2.0 5.0 0.00 0.00 0.00 80 1009.7
20260506144852 67 134 2.0 4.0 0.00 0.00 0.00 79 1009.7
20260506144621 66 180 2.0 5.0 0.00 0.00 0.00 79 1009.3
20260506144544 66 228 2.0 5.0 0.00 0.00 0.00 79 1009.3
20260506144342 67 178 2.0 5.0 0.00 0.00 0.00 79 1009.8
20260506143849 67 169 1.0 5.0 0.00 0.00 0.00 80 1009.7
20260506143341 67 153 2.0 7.0 0.00 0.00 0.00 79 1009.8
20260506143106 66 211 1.0 7.0 0.00 0.00 0.00 80 1009.4
20260506143043 66 159 1.0 7.0 0.00 0.00 0.00 80 1009.2
20260506142847 67 111 2.0 7.0 0.00 0.00 0.00 80 1009.8
20260506142337 67 19 1.0 5.0 0.00 0.00 0.00 81 1009.8
20260506141908 66 194 1.0 4.0 0.00 0.00 0.00 82 1009.9
20260506141615 66 179 0.0 4.0 0.00 0.00 0.00 81 1009.5
20260506141539 66 0 1.0 5.0 0.00 0.00 0.00 81 1009.3
20260506141337 66 238 1.0 5.0 0.00 0.00 0.00 81 1009.9
20260506140847 66 81 2.0 5.0 0.00 0.00 0.00 81 1010.0
20260506140358 66 185 2.0 4.0 0.00 0.00 0.00 81 1010.0
20260506140123 66 165 0.0 3.0 0.00 0.00 0.00 81 1009.7
20260506140040 66 165 1.0 5.0 0.00 0.00 0.00 81 1009.4
20260506135844 66 145 1.0 5.0 0.00 0.00 0.00 82 1010.0
20260506135336 66 173 1.0 5.0 0.00 0.00 0.00 82 1010.0
20260506134846 65 206 3.0 5.0 0.00 0.00 0.00 82 1009.9
20260506134614 65 191 1.0 6.0 0.00 0.00 0.00 83 1009.4
20260506134539 65 169 1.0 6.0 0.00 0.00 0.00 82 1009.2
20260506134336 65 224 2.0 5.0 0.00 0.00 0.00 83 1009.8
20260506133847 65 141 1.0 4.0 0.00 0.00 0.00 84 1010.0
20260506133358 64 158 3.0 4.0 0.00 0.00 0.00 84 1010.1
20260506133115 64 167 0.0 4.0 0.00 0.00 0.00 84 1009.8
20260506133052 64 0 1.0 4.0 0.00 0.00 0.00 84 1009.5
20260506132844 64 201 1.0 4.0 0.00 0.00 0.00 84 1010.2
20260506132339 64 127 1.0 5.0 0.00 0.00 0.00 84 1010.1
20260506131848 64 199 2.0 5.0 0.00 0.00 0.00 84 1010.2
20260506131612 63 190 1.0 4.0 0.00 0.00 0.00 85 1009.7
20260506131537 63 206 1.0 4.0 0.00 0.00 0.00 84 1009.3
20260506131336 64 209 2.0 3.0 0.00 0.00 0.00 85 1009.9
20260506130847 63 161 1.0 4.0 0.00 0.00 0.00 86 1009.8
20260506130358 63 159 1.0 2.0 0.00 0.00 0.00 87 1009.8
20260506130123 63 138 0.0 3.0 0.00 0.00 0.00 87 1009.1
20260506130119 63 116 0.0 2.0 0.00 0.00 0.00 87 1009.4
20260506125338 63 158 2.0 2.0 0.00 0.00 0.00 87 1009.8
20260506124907 63 94 1.0 2.0 0.00 0.00 0.00 87 1009.8
20260506124612 62 147 0.0 4.0 0.00 0.00 0.00 87 1009.5
20260506124540 62 0 0.0 4.0 0.00 0.00 0.00 87 1009.1
20260506124338 63 147 0.0 4.0 0.00 0.00 0.00 87 1009.9
20260506123848 63 156 1.0 4.0 0.00 0.00 0.00 88 1009.8
20260506123340 62 182 1.0 3.0 0.00 0.00 0.00 88 1009.8
20260506123106 62 105 1.0 3.0 0.00 0.00 0.00 88 1009.5
20260506123040 62 175 1.0 4.0 0.00 0.00 0.00 88 1009.1
20260506122908 62 152 1.0 4.0 0.00 0.00 0.00 88 1009.9
20260506122354 62 167 1.0 4.0 0.00 0.00 0.00 88 1010.0
20260506121839 62 155 2.0 5.0 0.00 0.00 0.00 88 1010.2
20260506121609 62 157 1.0 5.0 0.00 0.00 0.00 89 1009.8
20260506121538 61 0 1.0 5.0 0.00 0.00 0.00 88 1009.5
20260506121349 62 157 2.0 5.0 0.00 0.00 0.00 89 1010.3
20260506120839 61 136 2.0 5.0 0.00 0.00 0.00 90 1010.4
20260506120350 61 160 2.0 5.0 0.00 0.00 0.00 91 1010.5
20260506120115 60 198 1.0 6.0 0.00 0.00 0.00 91 1010.2
20260506120044 60 180 1.0 6.0 0.00 0.00 0.00 90 1009.8
20260506115837 60 227 2.0 6.0 0.00 0.00 0.00 91 1010.4
20260506115409 60 156 3.0 6.0 0.00 0.00 0.00 92 1010.5
20260506114838 60 165 1.0 4.0 0.00 0.00 0.00 93 1010.4
20260506114605 59 161 1.0 4.0 0.00 0.00 0.00 93 1010.1
20260506114547 59 153 1.0 5.0 0.00 0.00 0.00 93 1009.7
20260506114347 59 153 2.0 4.0 0.00 0.00 0.00 93 1010.4
20260506113837 59 172 1.0 5.0 0.00 0.00 0.00 93 1010.4
20260506113408 59 164 1.0 4.0 0.00 0.00 0.00 94 1010.4
20260506113113 58 156 2.0 4.0 0.00 0.00 0.00 94 1010.1
20260506113041 58 173 1.0 5.0 0.00 0.00 0.00 94 1009.7
20260506112854 59 166 1.0 4.0 0.00 0.00 0.00 95 1010.4
20260506112406 58 173 1.0 3.0 0.00 0.00 0.00 95 1010.3
20260506111836 58 174 1.0 5.0 0.00 0.00 0.00 96 1010.2
20260506111605 57 161 1.0 5.0 0.00 0.00 0.00 96 1009.9
20260506111539 57 158 1.0 5.0 0.00 0.00 0.00 95 1009.5
20260506111408 58 177 2.0 5.0 0.00 0.00 0.00 96 1010.2
20260506110839 57 171 1.0 4.0 0.00 0.00 0.00 96 1010.3
20260506110350 57 157 1.0 3.0 0.00 0.00 0.00 96 1010.4
20260506110116 57 186 1.0 4.0 0.00 0.00 0.00 97 1010.2
20260506110049 56 0 1.0 4.0 0.00 0.00 0.00 96 1009.8
20260506105837 57 151 1.0 4.0 0.00 0.00 0.00 97 1010.5
20260506105347 57 144 2.0 4.0 0.00 0.00 0.00 97 1010.5
20260506104837 56 171 1.0 3.0 0.00 0.00 0.00 96 1010.4
20260506104606 56 196 1.0 3.0 0.00 0.00 0.00 96 1010.1
20260506104559 55 163 1.0 4.0 0.00 0.00 0.00 96 1009.6
20260506104348 56 161 1.0 3.0 0.00 0.00 0.00 96 1010.4
20260506103857 55 165 1.0 2.0 0.00 0.00 0.00 96 1010.3
20260506103347 55 186 1.0 2.0 0.00 0.00 0.00 96 1010.3
20260506103111 54 169 0.0 2.0 0.00 0.00 0.00 96 1010.0
20260506103043 54 169 0.0 2.0 0.00 0.00 0.00 95 1009.6
20260506102853 55 169 0.0 2.0 0.00 0.00 0.00 96 1010.3
20260506102343 54 159 0.0 1.0 0.00 0.00 0.00 96 1010.3
20260506101915 54 190 0.0 2.0 0.00 0.00 0.00 95 1010.2
20260506101547 54 0 0.0 2.0 0.00 0.00 0.00 95 1009.4
20260506101505 54 163 0.0 2.0 0.00 0.00 0.00 95 1009.9
20260506101403 54 188 0.0 2.0 0.00 0.00 0.00 95 1010.1
20260506100853 54 36 0.0 1.0 0.00 0.00 0.00 95 1010.2
20260506100344 54 36 1.0 2.0 0.00 0.00 0.00 95 1010.3
20260506100108 54 63 0.0 2.0 0.00 0.00 0.00 95 1009.9
20260506100044 54 0 0.0 2.0 0.00 0.00 0.00 95 1009.6
20260506095851 54 78 1.0 2.0 0.00 0.00 0.00 95 1010.2
20260506095401 54 267 0.0 1.0 0.00 0.00 0.00 95 1010.1
20260506094849 54 267 0.0 2.0 0.00 0.00 0.00 95 1010.2
20260506094625 53 267 0.0 2.0 0.00 0.00 0.00 95 1009.9
20260506094540 53 0 0.0 2.0 0.00 0.00 0.00 94 1009.6
20260506094339 54 267 0.0 2.0 0.00 0.00 0.00 95 1010.2
20260506093848 54 242 1.0 1.0 0.00 0.00 0.00 95 1010.1
20260506093340 54 242 0.0 0.0 0.00 0.00 0.00 95 1010.1
20260506093105 54 242 0.0 0.0 0.00 0.00 0.00 94 1009.9
20260506093038 54 0 0.0 1.0 0.00 0.00 0.00 94 1009.5
20260506092846 54 242 0.0 1.0 0.00 0.00 0.00 94 1010.2
20260506092339 54 242 0.0 1.0 0.00 0.00 0.00 94 1010.3
20260506091904 54 242 0.0 1.0 0.00 0.00 0.00 94 1010.2
20260506091614 54 242 0.0 1.0 0.00 0.00 0.00 94 1009.9
20260506091544 54 0 0.0 1.0 0.00 0.00 0.00 94 1009.6
20260506091338 54 217 0.0 1.0 0.00 0.00 0.00 94 1010.1
20260506090905 54 11 0.0 1.0 0.00 0.00 0.00 94 1010.2
20260506090340 55 11 0.0 1.0 0.00 0.00 0.00 94 1010.3
20260506090120 54 11 0.0 1.0 0.00 0.00 0.00 94 1010.0
20260506090046 54 0 0.0 1.0 0.00 0.00 0.00 93 1009.8
20260506085846 55 11 0.0 0.0 0.00 0.00 0.00 94 1010.4
20260506085336 55 11 0.0 0.0 0.00 0.00 0.00 94 1010.5
20260506084846 55 11 0.0 2.0 0.00 0.00 0.00 94 1010.5
20260506084542 54 0 0.0 2.0 0.00 0.00 0.00 93 1010.0
20260506084357 55 11 0.0 2.0 0.00 0.00 0.00 94 1010.5
20260506083906 55 11 0.0 0.0 0.00 0.00 0.00 93 1010.5
20260506083357 55 11 0.0 0.0 0.00 0.00 0.00 93 1010.4
20260506083118 55 11 0.0 0.0 0.00 0.00 0.00 93 1010.1
20260506083043 55 0 0.0 0.0 0.00 0.00 0.00 93 1010.0
20260506082844 55 11 0.0 0.0 0.00 0.00 0.00 93 1010.5
20260506082354 55 11 0.0 0.0 0.00 0.00 0.00 93 1010.6
20260506081846 55 11 0.0 0.0 0.00 0.00 0.00 93 1010.5
20260506081608 55 11 0.0 0.0 0.00 0.00 0.00 93 1010.2
20260506081541 55 0 0.0 0.0 0.00 0.00 0.00 92 1010.0
20260506081354 55 11 0.0 0.0 0.00 0.00 0.00 93 1010.5
20260506080845 55 11 0.0 0.0 0.00 0.00 0.00 92 1010.5
20260506080355 56 11 0.0 0.0 0.00 0.00 0.00 92 1010.6
20260506080120 55 11 0.0 1.0 0.00 0.00 0.00 92 1010.2
20260506073354 56 355 0.0 3.0 0.00 0.00 0.00 92 1010.5
20260506073042 56 0 0.0 3.0 0.00 0.00 0.00 91 1010.0
20260506073002 55 355 0.0 3.0 0.00 0.00 0.00 92 1010.2
20260506072901 56 74 1.0 3.0 0.00 0.00 0.00 92 1010.5
20260506072350 56 244 0.0 1.0 0.00 0.00 0.00 92 1010.7
20260506071840 56 317 0.0 0.0 0.00 0.00 0.00 91 1010.7
20260506071610 56 317 0.0 0.0 0.00 0.00 0.00 91 1010.5
20260506071541 55 0 0.0 0.0 0.00 0.00 0.00 91 1010.3
20260506071351 56 315 0.0 0.0 0.00 0.00 0.00 91 1010.7
20260506070841 56 178 0.0 0.0 0.00 0.00 0.00 91 1010.7
20260506070351 56 221 0.0 0.0 0.00 0.00 0.00 91 1010.7
20260506070116 56 221 0.0 0.0 0.00 0.00 0.00 91 1010.4
20260506062354 57 276 0.0 0.0 0.00 0.00 0.00 89 1010.7
20260506061843 57 276 0.0 0.0 0.00 0.00 0.00 89 1010.6
20260506061607 56 276 0.0 0.0 0.00 0.00 0.00 89 1010.4
20260506061537 56 0 0.0 0.0 0.00 0.00 0.00 88 1010.2
20260506061354 57 276 0.0 0.0 0.00 0.00 0.00 89 1010.6
20260506060901 57 284 0.0 0.0 0.00 0.00 0.00 88 1010.6
20260506060352 57 284 0.0 0.0 0.00 0.00 0.00 88 1010.6
20260506060134 57 284 0.0 0.0 0.00 0.00 0.00 88 1010.3
20260506051400 58 197 0.0 0.0 0.00 0.00 0.00 86 1011.0
20260506050850 58 197 0.0 0.0 0.00 0.00 0.00 86 1011.0
20260506050343 59 197 0.0 0.0 0.00 0.00 0.00 85 1011.0
20260506050109 58 197 0.0 0.0 0.00 0.00 0.00 85 1010.8
20260506044850 59 207 0.0 0.0 0.00 0.00 0.00 84 1011.1
20260506044618 59 207 0.0 0.0 0.00 0.00 0.00 84 1010.8
20260506044542 59 0 0.0 0.0 0.00 0.00 0.00 84 1010.7
20260506044341 59 207 0.0 0.0 0.00 0.00 0.00 83 1011.1
20260506043854 60 207 0.0 0.0 0.00 0.00 0.00 83 1011.1
20260506043345 60 207 0.0 0.0 0.00 0.00 0.00 82 1011.1
20260506043110 59 207 0.0 0.0 0.00 0.00 0.00 82 1010.8
20260506043048 59 0 0.0 0.0 0.00 0.00 0.00 82 1010.8
20260506042851 60 207 0.0 0.0 0.00 0.00 0.00 82 1011.1
20260506042342 60 207 0.0 0.0 0.00 0.00 0.00 82 1011.0
20260506041851 60 173 0.0 0.0 0.00 0.00 0.00 82 1010.9
20260506041619 60 184 0.0 0.0 0.00 0.00 0.00 81 1010.7
20260506041544 60 0 0.0 0.0 0.00 0.00 0.00 81 1010.6
20260506041341 61 184 0.0 0.0 0.00 0.00 0.00 81 1010.9
20260506040853 61 158 0.0 0.0 0.00 0.00 0.00 81 1010.9
20260506040344 61 149 0.0 1.0 0.00 0.00 0.00 81 1010.8
20260506040107 61 149 0.0 2.0 0.00 0.00 0.00 81 1010.6
20260506040052 61 0 0.0 2.0 0.00 0.00 0.00 80 1010.6
20260506035849 61 149 0.0 2.0 0.00 0.00 0.00 81 1010.9
20260506035341 62 141 0.0 1.0 0.00 0.00 0.00 81 1010.9
20260506034851 62 186 0.0 2.0 0.00 0.00 0.00 81 1010.9
20260506034620 61 188 0.0 2.0 0.00 0.00 0.00 80 1010.7
20260506034600 61 0 0.0 3.0 0.00 0.00 0.00 80 1010.7
20260506034345 62 167 1.0 2.0 0.00 0.00 0.00 80 1010.9
20260506033836 62 167 1.0 2.0 0.00 0.00 0.00 79 1011.0
20260506033409 63 167 1.0 3.0 0.00 0.00 0.00 79 1010.9
20260506033108 62 168 0.0 2.0 0.00 0.00 0.00 79 1010.7
20260506033043 62 168 1.0 3.0 0.00 0.00 0.00 78 1010.6
20260506032836 63 168 1.0 3.0 0.00 0.00 0.00 79 1010.8
20260506032346 63 188 1.0 3.0 0.00 0.00 0.00 78 1010.8
20260506031916 63 208 1.0 3.0 0.00 0.00 0.00 78 1010.6
20260506031544 63 159 1.0 4.0 0.00 0.00 0.00 78 1010.3
20260506031506 63 171 1.0 3.0 0.00 0.00 0.00 78 1010.4
20260506031406 63 166 2.0 3.0 0.00 0.00 0.00 78 1010.7
20260506030836 64 186 1.0 3.0 0.00 0.00 0.00 77 1010.8
20260506030347 64 182 0.0 3.0 0.00 0.00 0.00 77 1010.8
20260506030107 63 182 0.0 3.0 0.00 0.00 0.00 76 1010.5
20260506030041 63 0 0.0 4.0 0.00 0.00 0.00 76 1010.4
20260506025854 64 181 1.0 3.0 0.00 0.00 0.00 77 1010.8
20260506025345 64 173 1.0 4.0 0.00 0.00 0.00 76 1010.7
20260506024855 65 173 1.0 4.0 0.00 0.00 0.00 75 1010.7
20260506024617 64 168 1.0 4.0 0.00 0.00 0.00 75 1010.5
20260506024546 64 168 1.0 4.0 0.00 0.00 0.00 74 1010.5
20260506024343 65 172 1.0 2.0 0.00 0.00 0.00 74 1010.8
20260506023853 65 178 1.0 3.0 0.00 0.00 0.00 74 1010.8
20260506023344 65 182 2.0 3.0 0.00 0.00 0.00 73 1010.8
20260506023110 65 159 1.0 3.0 0.00 0.00 0.00 73 1010.6
20260506023038 65 185 1.0 4.0 0.00 0.00 0.00 72 1010.5
20260506022853 66 205 2.0 4.0 0.00 0.00 0.00 74 1010.8
20260506022343 66 184 2.0 4.0 0.00 0.00 0.00 73 1010.8
20260506021854 66 194 3.0 5.0 0.00 0.00 0.00 72 1010.8
20260506021602 65 173 2.0 7.0 0.00 0.00 0.00 73 1010.5
20260506021550 65 171 2.0 7.0 0.00 0.00 0.00 72 1010.3
20260506021406 66 159 3.0 7.0 0.00 0.00 0.00 73 1010.7
20260506020855 66 179 3.0 6.0 0.00 0.00 0.00 73 1010.7
20260506020347 65 186 2.0 5.0 0.00 0.00 0.00 73 1010.7
20260506020113 65 188 1.0 5.0 0.00 0.00 0.00 73 1010.5
20260506020041 65 0 2.0 5.0 0.00 0.00 0.00 73 1010.4
20260506015916 65 182 3.0 5.0 0.00 0.00 0.00 73 1010.6
20260506015345 65 207 2.0 5.0 0.00 0.00 0.00 75 1010.6
20260506014836 65 174 2.0 5.0 0.00 0.00 0.00 74 1010.6
20260506014605 64 196 1.0 4.0 0.00 0.00 0.00 75 1010.2
20260506014542 64 213 1.0 5.0 0.00 0.00 0.00 74 1010.1
20260506014347 65 229 1.0 5.0 0.00 0.00 0.00 75 1010.5
20260506013838 65 171 2.0 5.0 0.00 0.00 0.00 74 1010.4
20260506013349 65 176 1.0 7.0 0.00 0.00 0.00 74 1010.3
20260506013113 65 180 2.0 7.0 0.00 0.00 0.00 74 1010.0
20260506013044 65 194 2.0 7.0 0.00 0.00 0.00 74 1009.9
20260506012915 65 165 2.0 7.0 0.00 0.00 0.00 74 1010.2
20260506012345 65 188 3.0 7.0 0.00 0.00 0.00 74 1010.1
20260506011855 65 190 1.0 6.0 0.00 0.00 0.00 76 1010.2
20260506011604 64 179 1.0 6.0 0.00 0.00 0.00 76 1009.9
20260506011545 64 180 0.0 7.0 0.00 0.00 0.00 75 1009.7
20260506011345 64 211 1.0 6.0 0.00 0.00 0.00 75 1010.1
20260506010853 64 148 2.0 11.0 0.00 0.00 0.00 76 1010.1
20260506010346 64 175 1.0 11.0 0.00 0.00 0.00 76 1010.1
20260506010110 64 88 1.0 12.0 0.00 0.00 0.00 76 1009.7
20260506010047 64 227 1.0 4.0 0.00 0.00 0.00 75 1009.6
20260506005852 64 184 2.0 4.0 0.00 0.00 0.00 75 1010.0
20260506005342 65 245 0.0 4.0 0.00 0.00 0.00 75 1009.9
20260506004853 65 209 1.0 3.0 0.00 0.00 0.00 74 1009.9
20260506004621 65 215 0.0 3.0 0.00 0.00 0.00 75 1009.7
20260506004536 65 0 0.0 3.0 0.00 0.00 0.00 74 1009.5
20260506004343 65 216 1.0 3.0 0.00 0.00 0.00 74 1009.8
20260506003837 66 221 0.0 3.0 0.00 0.00 0.00 73 1009.8
20260506003349 66 162 1.0 2.0 0.00 0.00 0.00 73 1009.8
20260506003110 65 219 0.0 5.0 0.00 0.00 0.00 73 1009.5
20260506003042 65 0 0.0 5.0 0.00 0.00 0.00 72 1009.5
20260506002856 66 184 1.0 5.0 0.00 0.00 0.00 73 1009.7
20260506002346 66 186 2.0 5.0 0.00 0.00 0.00 72 1009.7
20260506001836 66 212 1.0 4.0 0.00 0.00 0.00 72 1009.5
20260506001620 66 213 1.0 4.0 0.00 0.00 0.00 73 1009.3
20260506001542 66 190 1.0 4.0 0.00 0.00 0.00 72 1009.1
20260506001346 67 209 2.0 4.0 0.00 0.00 0.00 72 1009.5
20260506000837 67 177 1.0 3.0 0.00 0.00 0.00 72 1009.4
20260506000348 67 158 1.0 2.0 0.00 0.00 0.00 73 1009.5
20260506000110 67 176 0.0 3.0 0.00 0.00 0.00 72 1009.2
20260506000039 67 0 0.0 4.0 0.00 0.00 0.00 72 1009.1
20260505235916 67 164 1.0 3.0 0.00 0.00 0.00 72 1009.5
20260505235345 68 177 2.0 3.0 0.00 0.00 0.00 71 1009.2
20260505234857 68 175 1.0 5.0 0.00 0.00 0.00 71 1009.2
20260505234620 68 172 0.0 5.0 0.00 0.00 0.00 71 1009.0
20260505234602 68 171 1.0 5.0 0.00 0.00 0.00 71 1009.0
20260505234345 69 197 2.0 5.0 0.00 0.00 0.00 70 1009.3
20260505233835 69 199 2.0 3.0 0.00 0.00 0.00 68 1009.2
20260505233348 69 206 1.0 3.0 0.00 0.00 0.00 69 1009.1
20260505233113 69 194 0.0 3.0 0.00 0.00 0.00 69 1008.7
20260505233038 69 209 1.0 3.0 0.00 0.00 0.00 68 1008.6
20260505232855 69 231 1.0 3.0 0.00 0.00 0.00 68 1008.9
20260505232406 70 188 1.0 4.0 0.00 0.00 0.00 67 1008.8
20260505231855 70 151 1.0 5.0 0.00 0.00 0.00 66 1008.7
20260505231605 70 236 2.0 5.0 0.00 0.00 0.00 65 1008.5
20260505231538 70 248 2.0 5.0 0.00 0.00 0.00 65 1008.5
20260505231344 71 228 2.0 5.0 0.00 0.00 0.00 65 1008.7
20260505230853 71 153 1.0 5.0 0.00 0.00 0.00 66 1008.6
20260505230344 71 242 3.0 10.0 0.00 0.00 0.00 65 1008.5
20260505230108 71 202 2.0 10.0 0.00 0.00 0.00 64 1008.2
20260505230046 71 192 3.0 10.0 0.00 0.00 0.00 64 1008.1
20260505225849 71 222 2.0 4.0 0.00 0.00 0.00 64 1008.4
20260505225339 72 144 1.0 4.0 0.00 0.00 0.00 65 1008.3
20260505224849 72 142 1.0 4.0 0.00 0.00 0.00 65 1008.3
20260505224617 71 173 1.0 4.0 0.00 0.00 0.00 63 1008.1
20260505224540 71 195 1.0 4.0 0.00 0.00 0.00 63 1008.0
20260505224339 72 157 1.0 3.0 0.00 0.00 0.00 63 1008.3
20260505223848 72 213 1.0 5.0 0.00 0.00 0.00 62 1008.2
20260505223341 72 186 2.0 5.0 0.00 0.00 0.00 61 1008.2
20260505223109 72 192 1.0 8.0 0.00 0.00 0.00 62 1007.9
20260505223044 72 209 1.0 8.0 0.00 0.00 0.00 62 1007.7
20260505222849 72 188 2.0 8.0 0.00 0.00 0.00 61 1008.1
20260505222338 72 221 3.0 8.0 0.00 0.00 0.00 62 1008.1
20260505221848 73 170 1.0 4.0 0.00 0.00 0.00 61 1008.2
20260505221616 72 209 1.0 7.0 0.00 0.00 0.00 62 1008.0
20260505221539 72 196 1.0 7.0 0.00 0.00 0.00 63 1007.9
20260505221339 73 180 1.0 7.0 0.00 0.00 0.00 64 1008.3
20260505220849 73 222 2.0 4.0 0.00 0.00 0.00 61 1008.4
20260505220341 73 213 1.0 4.0 0.00 0.00 0.00 63 1008.3
20260505220040 73 201 1.0 6.0 0.00 0.00 0.00 62 1007.7
20260505215845 74 197 1.0 5.0 0.00 0.00 0.00 62 1008.2
20260505215416 74 218 1.0 6.0 0.00 0.00 0.00 61 1008.1
20260505214846 74 205 2.0 5.0 0.00 0.00 0.00 60 1008.0
20260505214616 74 54 1.0 5.0 0.00 0.00 0.00 60 1007.8
20260505214549 74 137 1.0 5.0 0.00 0.00 0.00 60 1007.6
20260505214340 74 155 2.0 4.0 0.00 0.00 0.00 61 1008.0
20260505213850 75 101 1.0 5.0 0.00 0.00 0.00 61 1008.0
20260505213341 75 142 2.0 5.0 0.00 0.00 0.00 59 1008.0
20260505213121 74 197 1.0 6.0 0.00 0.00 0.00 59 1007.7
20260505213043 74 201 1.0 8.0 0.00 0.00 0.00 59 1007.5
20260505212849 75 80 2.0 8.0 0.00 0.00 0.00 60 1007.9
20260505212338 75 51 2.0 8.0 0.00 0.00 0.00 59 1007.9
20260505211848 75 53 3.0 6.0 0.00 0.00 0.00 58 1007.9
20260505211613 75 208 2.0 8.0 0.00 0.00 0.00 59 1007.7
20260505211601 75 137 2.0 10.0 0.00 0.00 0.00 59 1007.5
20260505211339 76 130 2.0 8.0 0.00 0.00 0.00 58 1007.9
20260505210910 76 92 3.0 10.0 0.00 0.00 0.00 58 1007.9
20260505210341 76 156 3.0 8.0 0.00 0.00 0.00 59 1007.7
20260505210121 76 153 2.0 5.0 0.00 0.00 0.00 58 1007.4
20260505210040 76 172 2.0 8.0 0.00 0.00 0.00 57 1007.2
20260505205846 76 134 2.0 7.0 0.00 0.00 0.00 58 1007.7
20260505205358 76 144 3.0 8.0 0.00 0.00 0.00 58 1007.9
20260505204907 76 161 3.0 6.0 0.00 0.00 0.00 60 1007.9
20260505204611 76 174 2.0 6.0 0.00 0.00 0.00 58 1007.6
20260505204539 76 152 2.0 7.0 0.00 0.00 0.00 57 1007.4
20260505204337 77 159 2.0 7.0 0.00 0.00 0.00 58 1007.9
20260505203908 77 134 3.0 8.0 0.00 0.00 0.00 59 1008.0
20260505203358 77 137 3.0 8.0 0.00 0.00 0.00 57 1008.0
20260505203119 76 148 2.0 7.0 0.00 0.00 0.00 58 1007.9
20260505203055 76 86 2.0 12.0 0.00 0.00 0.00 58 1007.6
20260505202845 77 138 3.0 12.0 0.00 0.00 0.00 58 1008.1
20260505202354 77 234 4.0 12.0 0.00 0.00 0.00 56 1008.0
20260505201844 77 157 4.0 11.0 0.00 0.00 0.00 58 1008.0
20260505201612 77 134 3.0 7.0 0.00 0.00 0.00 59 1007.9
20260505201542 76 156 2.0 10.0 0.00 0.00 0.00 58 1007.8
20260505201336 77 169 3.0 9.0 0.00 0.00 0.00 59 1008.1
20260505200846 77 198 3.0 10.0 0.00 0.00 0.00 58 1008.2
20260505200359 77 171 5.0 9.0 0.00 0.00 0.00 56 1008.2
20260505200103 77 181 5.0 10.0 0.00 0.00 0.00 57 1008.0
20260505200048 77 198 4.0 10.0 0.00 0.00 0.00 56 1008.0
20260505195845 77 170 3.0 10.0 0.00 0.00 0.00 60 1008.3
20260505195356 77 188 4.0 10.0 0.00 0.00 0.00 59 1008.4
20260505194847 77 195 5.0 10.0 0.00 0.00 0.00 57 1008.4
20260505194615 77 167 4.0 10.0 0.00 0.00 0.00 59 1008.2
20260505194543 77 164 5.0 10.0 0.00 0.00 0.00 60 1008.2
20260505194337 77 163 6.0 10.0 0.00 0.00 0.00 57 1008.5
20260505193847 78 105 4.0 15.0 0.00 0.00 0.00 61 1008.6
20260505193356 77 222 4.0 15.0 0.00 0.00 0.00 57 1008.6
20260505193121 77 166 6.0 15.0 0.00 0.00 0.00 56 1008.4
20260505193038 77 189 5.0 14.0 0.00 0.00 0.00 56 1008.3
20260505192844 78 152 5.0 9.0 0.00 0.00 0.00 56 1008.6
20260505192336 78 227 3.0 11.0 0.00 0.00 0.00 57 1008.7
20260505191846 78 174 5.0 11.0 0.00 0.00 0.00 55 1008.7
20260505191632 78 178 4.0 8.0 0.00 0.00 0.00 56 1008.5
20260505191550 79 176 2.0 9.0 0.00 0.00 0.00 55 1008.3
20260505191335 79 204 1.0 9.0 0.00 0.00 0.00 55 1008.7
20260505190846 79 157 3.0 9.0 0.00 0.00 0.00 54 1008.6
20260505190418 79 147 5.0 10.0 0.00 0.00 0.00 54 1008.8
20260505190122 79 163 4.0 10.0 0.00 0.00 0.00 54 1008.7
20260505190042 79 207 3.0 10.0 0.00 0.00 0.00 54 1008.5
20260505185844 80 142 3.0 8.0 0.00 0.00 0.00 56 1008.9
20260505185354 81 80 3.0 8.0 0.00 0.00 0.00 55 1009.0
20260505184906 80 117 3.0 8.0 0.00 0.00 0.00 55 1009.1
20260505184615 80 140 2.0 8.0 0.00 0.00 0.00 53 1008.9
20260505184548 80 132 3.0 8.0 0.00 0.00 0.00 53 1008.7
20260505184335 81 86 3.0 8.0 0.00 0.00 0.00 55 1009.2
20260505183846 81 189 4.0 6.0 0.00 0.00 0.00 52 1009.2
20260505183341 81 166 3.0 10.0 0.00 0.00 0.00 52 1009.2
20260505183043 80 51 4.0 11.0 0.00 0.00 0.00 54 1008.9
20260505183005 80 80 5.0 10.0 0.00 0.00 0.00 55 1009.0
20260505182904 81 214 5.0 11.0 0.00 0.00 0.00 51 1009.3
20260505182351 81 213 5.0 7.0 0.00 0.00 0.00 52 1009.2
20260505181859 80 163 3.0 12.0 0.00 0.00 0.00 53 1009.2
20260505181606 80 186 4.0 12.0 0.00 0.00 0.00 52 1009.0
20260505181538 80 150 4.0 14.0 0.00 0.00 0.00 50 1008.8
20260505181348 81 169 5.0 12.0 0.00 0.00 0.00 53 1009.2